Lage;Zeitpunkt der Messung;Wochentag;Fu�g�nger insgesamt;Temperatur in �c;Wetterlage;Fu�g�nger insgesamt Richtung Neumarkt;Fu�g�nger insgesamt Richtung Neuer Wall;Erwachsene;Kinder;Erwachsene Richtung Neumarkt;Erwachsene Richtung Neuer Wall;Kinder Richtung Neumarkt;Kinder Richtung Neuer Wall
Steinstra�e, Moers;2023-04-01 00:00:00 +0200;Saturday;28;10;rain;10;18;28;0;10;18;0;0
Steinstra�e, Moers;2023-04-01 01:00:00 +0200;Saturday;14;10;rain;9;5;14;0;9;5;0;0
Steinstra�e, Moers;2023-04-01 02:00:00 +0200;Saturday;17;10;rain;12;5;17;0;12;5;0;0
Steinstra�e, Moers;2023-04-01 03:00:00 +0200;Saturday;6;10;cloudy;3;3;6;0;3;3;0;0
Steinstra�e, Moers;2023-04-01 04:00:00 +0200;Saturday;2;10;rain;2;0;2;0;2;0;0;0
Steinstra�e, Moers;2023-04-01 05:00:00 +0200;Saturday;12;9;rain;6;6;12;0;6;6;0;0
Steinstra�e, Moers;2023-04-01 06:00:00 +0200;Saturday;28;9;rain;18;10;26;2;16;10;2;0
Steinstra�e, Moers;2023-04-01 07:00:00 +0200;Saturday;29;9;rain;16;13;26;3;14;12;2;1
Steinstra�e, Moers;2023-04-01 08:00:00 +0200;Saturday;39;9;rain;14;25;39;0;14;25;0;0
Steinstra�e, Moers;2023-04-01 09:00:00 +0200;Saturday;181;9;cloudy;95;86;176;5;91;85;4;1
Steinstra�e, Moers;2023-04-01 10:00:00 +0200;Saturday;582;9;rain;288;294;563;19;282;281;6;13
Steinstra�e, Moers;2023-04-01 11:00:00 +0200;Saturday;1012;10;rain;483;529;976;36;470;506;13;23
Steinstra�e, Moers;2023-04-01 12:00:00 +0200;Saturday;987;10;rain;467;520;958;29;453;505;14;15
Steinstra�e, Moers;2023-04-01 13:00:00 +0200;Saturday;858;10;rain;418;440;843;15;409;434;9;6
Steinstra�e, Moers;2023-04-01 14:00:00 +0200;Saturday;906;10;rain;424;482;888;18;413;475;11;7
Steinstra�e, Moers;2023-04-01 15:00:00 +0200;Saturday;683;10;cloudy;347;336;673;10;342;331;5;5
Steinstra�e, Moers;2023-04-01 16:00:00 +0200;Saturday;670;11;rain;325;345;656;14;320;336;5;9
Steinstra�e, Moers;2023-04-01 17:00:00 +0200;Saturday;515;10;rain;259;256;508;7;255;253;4;3
Steinstra�e, Moers;2023-04-01 18:00:00 +0200;Saturday;400;10;rain;209;191;391;9;204;187;5;4
Steinstra�e, Moers;2023-04-01 19:00:00 +0200;Saturday;109;10;rain;52;57;106;3;52;54;0;3
Steinstra�e, Moers;2023-04-01 20:00:00 +0200;Saturday;96;10;rain;39;57;95;1;38;57;1;0
Steinstra�e, Moers;2023-04-01 21:00:00 +0200;Saturday;122;10;rain;55;67;120;2;55;65;0;2
Steinstra�e, Moers;2023-04-01 22:00:00 +0200;Saturday;97;9;rain;42;55;95;2;40;55;2;0
Steinstra�e, Moers;2023-04-01 23:00:00 +0200;Saturday;58;9;rain;12;46;56;2;12;44;0;2
Steinstra�e, Moers;2023-04-02 00:00:00 +0200;Sunday;13;9;rain;11;2;13;0;11;2;0;0
Steinstra�e, Moers;2023-04-02 01:00:00 +0200;Sunday;16;8;rain;7;9;15;1;6;9;1;0
Steinstra�e, Moers;2023-04-02 02:00:00 +0200;Sunday;6;7;cloudy;4;2;6;0;4;2;0;0
Steinstra�e, Moers;2023-04-02 03:00:00 +0200;Sunday;1;7;cloudy;0;1;1;0;0;1;0;0
Steinstra�e, Moers;2023-04-02 04:00:00 +0200;Sunday;2;6;rain;0;2;2;0;0;2;0;0
Steinstra�e, Moers;2023-04-02 05:00:00 +0200;Sunday;1;6;rain;1;0;1;0;1;0;0;0
Steinstra�e, Moers;2023-04-02 06:00:00 +0200;Sunday;20;5;cloudy;9;11;20;0;9;11;0;0
Steinstra�e, Moers;2023-04-02 07:00:00 +0200;Sunday;33;5;cloudy;15;18;31;2;15;16;0;2
Steinstra�e, Moers;2023-04-02 08:00:00 +0200;Sunday;55;4;cloudy;33;22;53;2;31;22;2;0
Steinstra�e, Moers;2023-04-02 09:00:00 +0200;Sunday;179;4;cloudy;118;61;171;8;113;58;5;3
Steinstra�e, Moers;2023-04-02 10:00:00 +0200;Sunday;366;4;cloudy;185;181;355;11;180;175;5;6
Steinstra�e, Moers;2023-04-02 11:00:00 +0200;Sunday;1032;5;cloudy;533;499;994;38;512;482;21;17
Steinstra�e, Moers;2023-04-02 12:00:00 +0200;Sunday;2614;5;cloudy;1311;1303;2534;80;1264;1270;47;33
Steinstra�e, Moers;2023-04-02 13:00:00 +0200;Sunday;4318;6;cloudy;2056;2262;4157;161;1976;2181;80;81
Steinstra�e, Moers;2023-04-02 14:00:00 +0200;Sunday;5999;6;cloudy;3193;2806;5787;212;3067;2720;126;86
Steinstra�e, Moers;2023-04-02 15:00:00 +0200;Sunday;6047;6;cloudy;3049;2998;5794;253;2910;2884;139;114
Steinstra�e, Moers;2023-04-02 16:00:00 +0200;Sunday;4808;6;cloudy;2530;2278;4600;208;2404;2196;126;82
Steinstra�e, Moers;2023-04-02 17:00:00 +0200;Sunday;3547;7;partly-cloudy-day;1808;1739;3374;173;1711;1663;97;76
Steinstra�e, Moers;2023-04-02 18:00:00 +0200;Sunday;1442;8;partly-cloudy-day;673;769;1400;42;650;750;23;19
Steinstra�e, Moers;2023-04-02 19:00:00 +0200;Sunday;555;7;partly-cloudy-day;214;341;536;19;207;329;7;12
Steinstra�e, Moers;2023-04-02 20:00:00 +0200;Sunday;269;7;partly-cloudy-day;125;144;266;3;123;143;2;1
Steinstra�e, Moers;2023-04-02 21:00:00 +0200;Sunday;163;5;partly-cloudy-night;60;103;160;3;57;103;3;0
Steinstra�e, Moers;2023-04-02 22:00:00 +0200;Sunday;84;4;partly-cloudy-night;24;60;84;0;24;60;0;0
Steinstra�e, Moers;2023-04-02 23:00:00 +0200;Sunday;36;5;partly-cloudy-night;27;9;35;1;26;9;1;0
Steinstra�e, Moers;2023-04-03 00:00:00 +0200;Monday;21;1;partly-cloudy-night;10;11;20;1;9;11;1;0
Steinstra�e, Moers;2023-04-03 01:00:00 +0200;Monday;5;0;partly-cloudy-night;4;1;5;0;4;1;0;0
Steinstra�e, Moers;2023-04-03 02:00:00 +0200;Monday;9;-1;partly-cloudy-night;7;2;9;0;7;2;0;0
Steinstra�e, Moers;2023-04-03 03:00:00 +0200;Monday;5;-1;partly-cloudy-night;0;5;5;0;0;5;0;0
Steinstra�e, Moers;2023-04-03 04:00:00 +0200;Monday;14;-1;partly-cloudy-night;7;7;13;1;6;7;1;0
Steinstra�e, Moers;2023-04-03 05:00:00 +0200;Monday;8;1;clear-night;4;4;8;0;4;4;0;0
Steinstra�e, Moers;2023-04-03 06:00:00 +0200;Monday;63;1;clear-night;38;25;54;9;30;24;8;1
Steinstra�e, Moers;2023-04-03 07:00:00 +0200;Monday;90;1;clear-night;60;30;89;1;59;30;1;0
Steinstra�e, Moers;2023-04-03 08:00:00 +0200;Monday;246;0;clear-day;134;112;239;7;130;109;4;3
Steinstra�e, Moers;2023-04-03 09:00:00 +0200;Monday;602;2;clear-day;307;295;579;23;297;282;10;13
Steinstra�e, Moers;2023-04-03 10:00:00 +0200;Monday;1114;3;clear-day;545;569;1068;46;523;545;22;24
Steinstra�e, Moers;2023-04-03 11:00:00 +0200;Monday;1569;5;clear-day;743;826;1509;60;710;799;33;27
Steinstra�e, Moers;2023-04-03 12:00:00 +0200;Monday;1862;7;clear-day;955;907;1783;79;912;871;43;36
Steinstra�e, Moers;2023-04-03 13:00:00 +0200;Monday;1682;7;clear-day;862;820;1617;65;824;793;38;27
Steinstra�e, Moers;2023-04-03 14:00:00 +0200;Monday;1688;8;clear-day;857;831;1620;68;824;796;33;35
Steinstra�e, Moers;2023-04-03 15:00:00 +0200;Monday;1799;9;clear-day;914;885;1725;74;867;858;47;27
Steinstra�e, Moers;2023-04-03 16:00:00 +0200;Monday;1819;9;clear-day;889;930;1758;61;849;909;40;21
Steinstra�e, Moers;2023-04-03 17:00:00 +0200;Monday;1409;9;clear-day;727;682;1362;47;706;656;21;26
Steinstra�e, Moers;2023-04-03 18:00:00 +0200;Monday;958;9;clear-day;473;485;924;34;453;471;20;14
Steinstra�e, Moers;2023-04-03 19:00:00 +0200;Monday;329;8;partly-cloudy-day;150;179;320;9;147;173;3;6
Steinstra�e, Moers;2023-04-03 20:00:00 +0200;Monday;123;6;clear-day;52;71;123;0;52;71;0;0
Steinstra�e, Moers;2023-04-03 21:00:00 +0200;Monday;116;5;clear-night;64;52;116;0;64;52;0;0
Steinstra�e, Moers;2023-04-03 22:00:00 +0200;Monday;66;4;partly-cloudy-night;22;44;65;1;22;43;0;1
Steinstra�e, Moers;2023-04-03 23:00:00 +0200;Monday;20;3;clear-night;6;14;20;0;6;14;0;0
Steinstra�e, Moers;2023-04-04 00:00:00 +0200;Tuesday;1;3;cloudy;1;0;1;0;1;0;0;0
Steinstra�e, Moers;2023-04-04 01:00:00 +0200;Tuesday;13;1;cloudy;9;4;13;0;9;4;0;0
Steinstra�e, Moers;2023-04-04 02:00:00 +0200;Tuesday;6;-1;cloudy;4;2;6;0;4;2;0;0
Steinstra�e, Moers;2023-04-04 03:00:00 +0200;Tuesday;3;-1;partly-cloudy-night;0;3;3;0;0;3;0;0
Steinstra�e, Moers;2023-04-04 04:00:00 +0200;Tuesday;10;-2;partly-cloudy-night;5;5;10;0;5;5;0;0
Steinstra�e, Moers;2023-04-04 05:00:00 +0200;Tuesday;8;-1;partly-cloudy-night;5;3;8;0;5;3;0;0
Steinstra�e, Moers;2023-04-04 06:00:00 +0200;Tuesday;44;-2;partly-cloudy-night;28;16;40;4;24;16;4;0
Steinstra�e, Moers;2023-04-04 07:00:00 +0200;Tuesday;144;-2;clear-night;78;66;134;10;73;61;5;5
Steinstra�e, Moers;2023-04-04 08:00:00 +0200;Tuesday;351;-2;partly-cloudy-day;184;167;331;20;176;155;8;12
Steinstra�e, Moers;2023-04-04 09:00:00 +0200;Tuesday;741;1;cloudy;379;362;706;35;362;344;17;18
Steinstra�e, Moers;2023-04-04 10:00:00 +0200;Tuesday;1716;4;partly-cloudy-day;877;839;1647;69;837;810;40;29
Steinstra�e, Moers;2023-04-04 11:00:00 +0200;Tuesday;2122;6;partly-cloudy-day;1079;1043;2053;69;1035;1018;44;25
Steinstra�e, Moers;2023-04-04 12:00:00 +0200;Tuesday;2158;7;cloudy;1038;1120;2095;63;1002;1093;36;27
Steinstra�e, Moers;2023-04-04 13:00:00 +0200;Tuesday;1871;7;partly-cloudy-day;915;956;1805;66;880;925;35;31
Steinstra�e, Moers;2023-04-04 14:00:00 +0200;Tuesday;1773;8;partly-cloudy-day;887;886;1690;83;844;846;43;40
Steinstra�e, Moers;2023-04-04 15:00:00 +0200;Tuesday;2038;9;partly-cloudy-day;1011;1027;1945;93;958;987;53;40
Steinstra�e, Moers;2023-04-04 16:00:00 +0200;Tuesday;1890;9;cloudy;892;998;1801;89;855;946;37;52
Steinstra�e, Moers;2023-04-04 17:00:00 +0200;Tuesday;1600;10;partly-cloudy-day;861;739;1542;58;826;716;35;23
Steinstra�e, Moers;2023-04-04 18:00:00 +0200;Tuesday;968;9;cloudy;497;471;931;37;476;455;21;16
Steinstra�e, Moers;2023-04-04 19:00:00 +0200;Tuesday;300;9;cloudy;143;157;294;6;140;154;3;3
Steinstra�e, Moers;2023-04-04 20:00:00 +0200;Tuesday;135;7;cloudy;68;67;132;3;66;66;2;1
Steinstra�e, Moers;2023-04-04 21:00:00 +0200;Tuesday;96;7;cloudy;42;54;93;3;39;54;3;0
Steinstra�e, Moers;2023-04-04 22:00:00 +0200;Tuesday;59;6;cloudy;21;38;59;0;21;38;0;0
Steinstra�e, Moers;2023-04-04 23:00:00 +0200;Tuesday;23;4;partly-cloudy-night;12;11;23;0;12;11;0;0
Steinstra�e, Moers;2023-04-05 00:00:00 +0200;Wednesday;13;3;partly-cloudy-night;6;7;13;0;6;7;0;0
Steinstra�e, Moers;2023-04-05 01:00:00 +0200;Wednesday;11;1;partly-cloudy-night;7;4;11;0;7;4;0;0
Steinstra�e, Moers;2023-04-05 02:00:00 +0200;Wednesday;6;0;partly-cloudy-night;4;2;6;0;4;2;0;0
Steinstra�e, Moers;2023-04-05 03:00:00 +0200;Wednesday;5;0;partly-cloudy-night;0;5;5;0;0;5;0;0
Steinstra�e, Moers;2023-04-05 04:00:00 +0200;Wednesday;13;-1;partly-cloudy-night;7;6;13;0;7;6;0;0
Steinstra�e, Moers;2023-04-05 05:00:00 +0200;Wednesday;6;-1;partly-cloudy-night;3;3;6;0;3;3;0;0
Steinstra�e, Moers;2023-04-05 06:00:00 +0200;Wednesday;37;-1;clear-night;22;15;34;3;21;13;1;2
Steinstra�e, Moers;2023-04-05 07:00:00 +0200;Wednesday;92;-2;clear-night;60;32;89;3;57;32;3;0
Steinstra�e, Moers;2023-04-05 08:00:00 +0200;Wednesday;226;-1;clear-day;129;97;222;4;127;95;2;2
Steinstra�e, Moers;2023-04-05 09:00:00 +0200;Wednesday;560;3;clear-day;284;276;547;13;275;272;9;4
Steinstra�e, Moers;2023-04-05 10:00:00 +0200;Wednesday;1162;5;clear-day;568;594;1123;39;543;580;25;14
Steinstra�e, Moers;2023-04-05 11:00:00 +0200;Wednesday;1485;7;clear-day;759;726;1426;59;728;698;31;28
Steinstra�e, Moers;2023-04-05 12:00:00 +0200;Wednesday;1768;9;clear-day;890;878;1700;68;856;844;34;34
Steinstra�e, Moers;2023-04-05 13:00:00 +0200;Wednesday;1593;9;partly-cloudy-day;834;759;1555;38;812;743;22;16
Steinstra�e, Moers;2023-04-05 14:00:00 +0200;Wednesday;1534;10;partly-cloudy-day;748;786;1484;50;720;764;28;22
Steinstra�e, Moers;2023-04-05 15:00:00 +0200;Wednesday;1666;10;partly-cloudy-day;812;854;1608;58;781;827;31;27
Steinstra�e, Moers;2023-04-05 16:00:00 +0200;Wednesday;1746;11;partly-cloudy-day;852;894;1687;59;829;858;23;36
Steinstra�e, Moers;2023-04-05 17:00:00 +0200;Wednesday;1529;12;partly-cloudy-day;781;748;1466;63;742;724;39;24
Steinstra�e, Moers;2023-04-05 18:00:00 +0200;Wednesday;991;11;partly-cloudy-day;516;475;954;37;497;457;19;18
Steinstra�e, Moers;2023-04-05 19:00:00 +0200;Wednesday;380;11;partly-cloudy-day;175;205;369;11;170;199;5;6
Steinstra�e, Moers;2023-04-05 20:00:00 +0200;Wednesday;117;9;partly-cloudy-day;48;69;114;3;46;68;2;1
Steinstra�e, Moers;2023-04-05 21:00:00 +0200;Wednesday;103;7;clear-night;43;60;100;3;41;59;2;1
Steinstra�e, Moers;2023-04-05 22:00:00 +0200;Wednesday;67;5;clear-night;28;39;66;1;27;39;1;0
Steinstra�e, Moers;2023-04-05 23:00:00 +0200;Wednesday;12;5;clear-night;9;3;12;0;9;3;0;0
Steinstra�e, Moers;2023-04-06 00:00:00 +0200;Thursday;11;3;clear-night;3;8;11;0;3;8;0;0
Steinstra�e, Moers;2023-04-06 01:00:00 +0200;Thursday;0;2;clear-night;0;0;0;0;0;0;0;0
Steinstra�e, Moers;2023-04-06 02:00:00 +0200;Thursday;2;1;clear-night;2;0;2;0;2;0;0;0
Steinstra�e, Moers;2023-04-06 03:00:00 +0200;Thursday;3;1;partly-cloudy-night;0;3;3;0;0;3;0;0
Steinstra�e, Moers;2023-04-06 04:00:00 +0200;Thursday;15;1;cloudy;6;9;15;0;6;9;0;0
Steinstra�e, Moers;2023-04-06 05:00:00 +0200;Thursday;14;1;partly-cloudy-night;7;7;14;0;7;7;0;0
Steinstra�e, Moers;2023-04-06 06:00:00 +0200;Thursday;52;1;cloudy;33;19;52;0;33;19;0;0
Steinstra�e, Moers;2023-04-06 07:00:00 +0200;Thursday;146;1;cloudy;82;64;140;6;78;62;4;2
Steinstra�e, Moers;2023-04-06 08:00:00 +0200;Thursday;349;2;cloudy;176;173;337;12;171;166;5;7
Steinstra�e, Moers;2023-04-06 09:00:00 +0200;Thursday;792;5;cloudy;438;354;758;34;415;343;23;11
Steinstra�e, Moers;2023-04-06 10:00:00 +0200;Thursday;1473;7;cloudy;738;735;1423;50;710;713;28;22
Steinstra�e, Moers;2023-04-06 11:00:00 +0200;Thursday;1818;8;cloudy;898;920;1754;64;861;893;37;27
Steinstra�e, Moers;2023-04-06 12:00:00 +0200;Thursday;1957;10;cloudy;992;965;1891;66;952;939;40;26
Steinstra�e, Moers;2023-04-06 13:00:00 +0200;Thursday;1657;11;cloudy;778;879;1605;52;752;853;26;26
Steinstra�e, Moers;2023-04-06 14:00:00 +0200;Thursday;1471;11;partly-cloudy-day;705;766;1415;56;678;737;27;29
Steinstra�e, Moers;2023-04-06 15:00:00 +0200;Thursday;1384;11;rain;682;702;1341;43;660;681;22;21
Steinstra�e, Moers;2023-04-06 16:00:00 +0200;Thursday;1107;10;rain;590;517;1069;38;570;499;20;18
Steinstra�e, Moers;2023-04-06 17:00:00 +0200;Thursday;714;9;rain;339;375;698;16;330;368;9;7
Steinstra�e, Moers;2023-04-06 18:00:00 +0200;Thursday;371;9;rain;200;171;363;8;198;165;2;6
Steinstra�e, Moers;2023-04-06 19:00:00 +0200;Thursday;101;8;rain;43;58;99;2;42;57;1;1
Steinstra�e, Moers;2023-04-06 20:00:00 +0200;Thursday;71;8;rain;28;43;71;0;28;43;0;0
Steinstra�e, Moers;2023-04-06 21:00:00 +0200;Thursday;62;7;rain;26;36;62;0;26;36;0;0
Steinstra�e, Moers;2023-04-06 22:00:00 +0200;Thursday;41;7;rain;18;23;41;0;18;23;0;0
Steinstra�e, Moers;2023-04-06 23:00:00 +0200;Thursday;34;8;rain;15;19;34;0;15;19;0;0
Steinstra�e, Moers;2023-04-07 00:00:00 +0200;Friday;7;7;rain;2;5;7;0;2;5;0;0
Steinstra�e, Moers;2023-04-07 01:00:00 +0200;Friday;3;8;rain;2;1;3;0;2;1;0;0
Steinstra�e, Moers;2023-04-07 02:00:00 +0200;Friday;5;8;rain;3;2;5;0;3;2;0;0
Steinstra�e, Moers;2023-04-07 03:00:00 +0200;Friday;0;8;cloudy;0;0;0;0;0;0;0;0
Steinstra�e, Moers;2023-04-07 04:00:00 +0200;Friday;5;8;cloudy;2;3;5;0;2;3;0;0
Steinstra�e, Moers;2023-04-07 05:00:00 +0200;Friday;7;8;cloudy;2;5;6;1;1;5;1;0
Steinstra�e, Moers;2023-04-07 06:00:00 +0200;Friday;9;8;rain;7;2;9;0;7;2;0;0
Steinstra�e, Moers;2023-04-07 07:00:00 +0200;Friday;24;8;rain;9;15;24;0;9;15;0;0
Steinstra�e, Moers;2023-04-07 08:00:00 +0200;Friday;37;8;rain;25;12;36;1;24;12;1;0
Steinstra�e, Moers;2023-04-07 09:00:00 +0200;Friday;45;8;cloudy;25;20;45;0;25;20;0;0
Steinstra�e, Moers;2023-04-07 10:00:00 +0200;Friday;129;8;cloudy;65;64;123;6;61;62;4;2
Steinstra�e, Moers;2023-04-07 11:00:00 +0200;Friday;165;8;cloudy;86;79;154;11;79;75;7;4
Steinstra�e, Moers;2023-04-07 12:00:00 +0200;Friday;198;9;cloudy;101;97;191;7;98;93;3;4
Steinstra�e, Moers;2023-04-07 13:00:00 +0200;Friday;229;9;rain;123;106;222;7;122;100;1;6
Steinstra�e, Moers;2023-04-07 14:00:00 +0200;Friday;278;9;cloudy;141;137;275;3;140;135;1;2
Steinstra�e, Moers;2023-04-07 15:00:00 +0200;Friday;229;10;rain;109;120;215;14;101;114;8;6
Steinstra�e, Moers;2023-04-07 16:00:00 +0200;Friday;128;10;rain;71;57;125;3;69;56;2;1
Steinstra�e, Moers;2023-04-07 17:00:00 +0200;Friday;191;9;rain;79;112;183;8;78;105;1;7
Steinstra�e, Moers;2023-04-07 18:00:00 +0200;Friday;139;10;rain;75;64;138;1;74;64;1;0
Steinstra�e, Moers;2023-04-07 19:00:00 +0200;Friday;104;9;cloudy;55;49;104;0;55;49;0;0
Steinstra�e, Moers;2023-04-07 20:00:00 +0200;Friday;99;9;rain;58;41;98;1;57;41;1;0
Steinstra�e, Moers;2023-04-07 21:00:00 +0200;Friday;88;9;cloudy;40;48;88;0;40;48;0;0
Steinstra�e, Moers;2023-04-07 22:00:00 +0200;Friday;50;9;cloudy;21;29;50;0;21;29;0;0
Steinstra�e, Moers;2023-04-07 23:00:00 +0200;Friday;53;8;cloudy;39;14;53;0;39;14;0;0
Steinstra�e, Moers;2023-04-08 00:00:00 +0200;Saturday;17;8;cloudy;6;11;16;1;6;10;0;1
Steinstra�e, Moers;2023-04-08 01:00:00 +0200;Saturday;2;8;cloudy;2;0;2;0;2;0;0;0
Steinstra�e, Moers;2023-04-08 02:00:00 +0200;Saturday;8;8;cloudy;6;2;8;0;6;2;0;0
Steinstra�e, Moers;2023-04-08 03:00:00 +0200;Saturday;2;8;cloudy;0;2;2;0;0;2;0;0
Steinstra�e, Moers;2023-04-08 04:00:00 +0200;Saturday;4;8;cloudy;2;2;4;0;2;2;0;0
Steinstra�e, Moers;2023-04-08 05:00:00 +0200;Saturday;9;8;partly-cloudy-night;5;4;9;0;5;4;0;0
Steinstra�e, Moers;2023-04-08 06:00:00 +0200;Saturday;26;7;cloudy;14;12;26;0;14;12;0;0
Steinstra�e, Moers;2023-04-08 07:00:00 +0200;Saturday;18;7;cloudy;10;8;17;1;10;7;0;1
Steinstra�e, Moers;2023-04-08 08:00:00 +0200;Saturday;78;7;cloudy;44;34;74;4;42;32;2;2
Steinstra�e, Moers;2023-04-08 09:00:00 +0200;Saturday;380;7;cloudy;192;188;375;5;189;186;3;2
Steinstra�e, Moers;2023-04-08 10:00:00 +0200;Saturday;1171;7;cloudy;580;591;1133;38;563;570;17;21
Steinstra�e, Moers;2023-04-08 11:00:00 +0200;Saturday;2081;7;cloudy;1083;998;2009;72;1046;963;37;35
Steinstra�e, Moers;2023-04-08 12:00:00 +0200;Saturday;2651;8;partly-cloudy-day;1418;1233;2577;74;1370;1207;48;26
Steinstra�e, Moers;2023-04-08 13:00:00 +0200;Saturday;2648;11;partly-cloudy-day;1359;1289;2571;77;1317;1254;42;35
Steinstra�e, Moers;2023-04-08 14:00:00 +0200;Saturday;2239;11;cloudy;1074;1165;2161;78;1038;1123;36;42
Steinstra�e, Moers;2023-04-08 15:00:00 +0200;Saturday;2121;11;cloudy;1056;1065;2053;68;1025;1028;31;37
Steinstra�e, Moers;2023-04-08 16:00:00 +0200;Saturday;1787;11;cloudy;904;883;1721;66;867;854;37;29
Steinstra�e, Moers;2023-04-08 17:00:00 +0200;Saturday;1196;11;cloudy;580;616;1159;37;559;600;21;16
Steinstra�e, Moers;2023-04-08 18:00:00 +0200;Saturday;515;11;cloudy;262;253;507;8;258;249;4;4
Steinstra�e, Moers;2023-04-08 19:00:00 +0200;Saturday;213;11;cloudy;93;120;207;6;91;116;2;4
Steinstra�e, Moers;2023-04-08 20:00:00 +0200;Saturday;156;10;cloudy;105;51;152;4;102;50;3;1
Steinstra�e, Moers;2023-04-08 21:00:00 +0200;Saturday;148;10;cloudy;71;77;142;6;67;75;4;2
Steinstra�e, Moers;2023-04-08 22:00:00 +0200;Saturday;88;10;cloudy;43;45;87;1;42;45;1;0
Steinstra�e, Moers;2023-04-08 23:00:00 +0200;Saturday;56;8;partly-cloudy-night;15;41;56;0;15;41;0;0
Steinstra�e, Moers;2023-04-09 00:00:00 +0200;Sunday;23;9;cloudy;11;12;23;0;11;12;0;0
Steinstra�e, Moers;2023-04-09 01:00:00 +0200;Sunday;11;9;partly-cloudy-night;7;4;11;0;7;4;0;0
Steinstra�e, Moers;2023-04-09 02:00:00 +0200;Sunday;9;8;partly-cloudy-night;4;5;9;0;4;5;0;0
Steinstra�e, Moers;2023-04-09 03:00:00 +0200;Sunday;1;6;cloudy;0;1;1;0;0;1;0;0
Steinstra�e, Moers;2023-04-09 04:00:00 +0200;Sunday;7;6;partly-cloudy-night;3;4;7;0;3;4;0;0
Steinstra�e, Moers;2023-04-09 05:00:00 +0200;Sunday;15;5;partly-cloudy-night;10;5;15;0;10;5;0;0
Steinstra�e, Moers;2023-04-09 06:00:00 +0200;Sunday;19;3;cloudy;6;13;18;1;5;13;1;0
Steinstra�e, Moers;2023-04-09 07:00:00 +0200;Sunday;21;3;partly-cloudy-day;11;10;20;1;11;9;0;1
Steinstra�e, Moers;2023-04-09 08:00:00 +0200;Sunday;35;3;partly-cloudy-day;19;16;33;2;19;14;0;2
Steinstra�e, Moers;2023-04-09 09:00:00 +0200;Sunday;46;7;partly-cloudy-day;24;22;46;0;24;22;0;0
Steinstra�e, Moers;2023-04-09 10:00:00 +0200;Sunday;132;10;partly-cloudy-day;77;55;129;3;75;54;2;1
Steinstra�e, Moers;2023-04-09 11:00:00 +0200;Sunday;240;11;cloudy;143;97;226;14;134;92;9;5
Steinstra�e, Moers;2023-04-09 12:00:00 +0200;Sunday;268;12;partly-cloudy-day;149;119;253;15;138;115;11;4
Steinstra�e, Moers;2023-04-09 13:00:00 +0200;Sunday;387;13;partly-cloudy-day;214;173;377;10;212;165;2;8
Steinstra�e, Moers;2023-04-09 14:00:00 +0200;Sunday;512;14;partly-cloudy-day;252;260;494;18;243;251;9;9
Steinstra�e, Moers;2023-04-09 15:00:00 +0200;Sunday;573;14;partly-cloudy-day;289;284;539;34;270;269;19;15
Steinstra�e, Moers;2023-04-09 16:00:00 +0200;Sunday;536;15;partly-cloudy-day;265;271;515;21;257;258;8;13
Steinstra�e, Moers;2023-04-09 17:00:00 +0200;Sunday;452;14;partly-cloudy-day;228;224;424;28;213;211;15;13
Steinstra�e, Moers;2023-04-09 18:00:00 +0200;Sunday;330;14;partly-cloudy-day;140;190;319;11;135;184;5;6
Steinstra�e, Moers;2023-04-09 19:00:00 +0200;Sunday;232;14;partly-cloudy-day;104;128;228;4;101;127;3;1
Steinstra�e, Moers;2023-04-09 20:00:00 +0200;Sunday;153;13;partly-cloudy-day;80;73;147;6;74;73;6;0
Steinstra�e, Moers;2023-04-09 21:00:00 +0200;Sunday;125;10;partly-cloudy-night;53;72;120;5;51;69;2;3
Steinstra�e, Moers;2023-04-09 22:00:00 +0200;Sunday;83;9;partly-cloudy-night;36;47;80;3;34;46;2;1
Steinstra�e, Moers;2023-04-09 23:00:00 +0200;Sunday;59;10;partly-cloudy-night;21;38;59;0;21;38;0;0
Steinstra�e, Moers;2023-04-10 00:00:00 +0200;Monday;17;8;cloudy;5;12;17;0;5;12;0;0
Steinstra�e, Moers;2023-04-10 01:00:00 +0200;Monday;11;8;partly-cloudy-night;5;6;11;0;5;6;0;0
Steinstra�e, Moers;2023-04-10 02:00:00 +0200;Monday;16;8;cloudy;9;7;15;1;8;7;1;0
Steinstra�e, Moers;2023-04-10 03:00:00 +0200;Monday;10;7;partly-cloudy-night;9;1;10;0;9;1;0;0
Steinstra�e, Moers;2023-04-10 04:00:00 +0200;Monday;8;7;partly-cloudy-night;3;5;8;0;3;5;0;0
Steinstra�e, Moers;2023-04-10 05:00:00 +0200;Monday;5;7;partly-cloudy-night;1;4;5;0;1;4;0;0
Steinstra�e, Moers;2023-04-10 06:00:00 +0200;Monday;7;6;partly-cloudy-night;3;4;7;0;3;4;0;0
Steinstra�e, Moers;2023-04-10 07:00:00 +0200;Monday;13;6;partly-cloudy-day;9;4;10;3;7;3;2;1
Steinstra�e, Moers;2023-04-10 08:00:00 +0200;Monday;35;8;cloudy;19;16;33;2;19;14;0;2
Steinstra�e, Moers;2023-04-10 09:00:00 +0200;Monday;86;10;cloudy;57;29;81;5;54;27;3;2
Steinstra�e, Moers;2023-04-10 10:00:00 +0200;Monday;152;11;cloudy;84;68;145;7;80;65;4;3
Steinstra�e, Moers;2023-04-10 11:00:00 +0200;Monday;272;12;cloudy;142;130;258;14;135;123;7;7
Steinstra�e, Moers;2023-04-10 12:00:00 +0200;Monday;370;14;cloudy;205;165;355;15;196;159;9;6
Steinstra�e, Moers;2023-04-10 13:00:00 +0200;Monday;440;15;cloudy;225;215;427;13;219;208;6;7
Steinstra�e, Moers;2023-04-10 14:00:00 +0200;Monday;585;15;cloudy;279;306;570;15;270;300;9;6
Steinstra�e, Moers;2023-04-10 15:00:00 +0200;Monday;573;17;cloudy;291;282;543;30;277;266;14;16
Steinstra�e, Moers;2023-04-10 16:00:00 +0200;Monday;517;17;cloudy;245;272;507;10;240;267;5;5
Steinstra�e, Moers;2023-04-10 17:00:00 +0200;Monday;345;17;cloudy;171;174;330;15;162;168;9;6
Steinstra�e, Moers;2023-04-10 18:00:00 +0200;Monday;191;16;cloudy;99;92;186;5;95;91;4;1
Steinstra�e, Moers;2023-04-10 19:00:00 +0200;Monday;120;14;rain;46;74;114;6;44;70;2;4
Steinstra�e, Moers;2023-04-10 20:00:00 +0200;Monday;61;13;rain;28;33;59;2;26;33;2;0
Steinstra�e, Moers;2023-04-10 21:00:00 +0200;Monday;40;12;rain;12;28;40;0;12;28;0;0
Steinstra�e, Moers;2023-04-10 22:00:00 +0200;Monday;36;11;rain;18;18;36;0;18;18;0;0
Steinstra�e, Moers;2023-04-10 23:00:00 +0200;Monday;10;12;rain;5;5;10;0;5;5;0;0
Steinstra�e, Moers;2023-04-11 00:00:00 +0200;Tuesday;9;10;rain;5;4;9;0;5;4;0;0
Steinstra�e, Moers;2023-04-11 01:00:00 +0200;Tuesday;5;9;partly-cloudy-night;3;2;5;0;3;2;0;0
Steinstra�e, Moers;2023-04-11 02:00:00 +0200;Tuesday;2;10;partly-cloudy-night;2;0;2;0;2;0;0;0
Steinstra�e, Moers;2023-04-11 03:00:00 +0200;Tuesday;1;10;cloudy;0;1;1;0;0;1;0;0
Steinstra�e, Moers;2023-04-11 04:00:00 +0200;Tuesday;15;10;rain;7;8;15;0;7;8;0;0
Steinstra�e, Moers;2023-04-11 05:00:00 +0200;Tuesday;8;9;partly-cloudy-night;1;7;8;0;1;7;0;0
Steinstra�e, Moers;2023-04-11 06:00:00 +0200;Tuesday;43;9;partly-cloudy-night;24;19;41;2;24;17;0;2
Steinstra�e, Moers;2023-04-11 07:00:00 +0200;Tuesday;119;9;partly-cloudy-day;74;45;115;4;71;44;3;1
Steinstra�e, Moers;2023-04-11 08:00:00 +0200;Tuesday;266;9;rain;143;123;255;11;137;118;6;5
Steinstra�e, Moers;2023-04-11 09:00:00 +0200;Tuesday;761;9;rain;373;388;734;27;357;377;16;11
Steinstra�e, Moers;2023-04-11 10:00:00 +0200;Tuesday;1376;10;rain;672;704;1310;66;637;673;35;31
Steinstra�e, Moers;2023-04-11 11:00:00 +0200;Tuesday;1788;11;partly-cloudy-day;876;912;1715;73;843;872;33;40